• In Czech Republic
  • List of Countries
  • For 7 days
  • Water Temperature
  • Satellite Maps
  • Weather Map
  • Weather Widgets
  • user-avatar
    Login

    Hourly Weather Inverness

    Today, 22 July, Sunday

    Time Temperature Precipitation Wind Pressure Humidity
    00:00 +16°C° 0.1 mm 3 mps 753 mmHg 94%
    01:00 +16°C° 0 mm 3 mps 753 mmHg 94%
    02:00 +17°C° 0 mm 3 mps 753 mmHg 94%
    03:00 +17°C° 0 mm 3 mps 753 mmHg 94%
    04:00 +17°C° 0 mm 3 mps 753 mmHg 93%
    05:00 +18°C° 0 mm 3 mps 753 mmHg 93%
    06:00 +18°C° 0 mm 4 mps 753 mmHg 92%
    07:00 +18°C° 0 mm 4 mps 754 mmHg 90%
    08:00 +19°C° 0 mm 4 mps 754 mmHg 89%
    09:00 +19°C° 0 mm 4 mps 754 mmHg 87%
    10:00 +20°C° 0 mm 5 mps 754 mmHg 83%
    11:00 +21°C° 0 mm 5 mps 754 mmHg 78%
    12:00 +22°C° 0 mm 6 mps 754 mmHg 73%
    13:00 +22°C° 0 mm 5 mps 754 mmHg 73%
    14:00 +22°C° 0 mm 5 mps 755 mmHg 73%
    15:00 +22°C° 0 mm 5 mps 755 mmHg 72%
    16:00 +21°C° 0.1 mm 4 mps 755 mmHg 76%
    17:00 +20°C° 0.1 mm 4 mps 755 mmHg 80%
    18:00 +19°C° 0.1 mm 3 mps 755 mmHg 84%
    19:00 +18°C° 0.1 mm 2 mps 755 mmHg 87%
    20:00 +18°C° 0.1 mm 2 mps 755 mmHg 90%
    21:00 +18°C° 0.1 mm 1 mps 755 mmHg 93%
    22:00 +18°C° 0.1 mm 1 mps 755 mmHg 94%
    23:00 +18°C° 0.1 mm 1 mps 755 mmHg 95%

    Tomorrow, 23 July, Monday

    Time Temperature Precipitation Wind Pressure Humidity
    00:00 +17°C° 0.1 mm 2 mps 755 mmHg 96%
    01:00 +17°C° 0.5 mm 2 mps 755 mmHg 96%
    02:00 +17°C° 0.5 mm 2 mps 754 mmHg 96%
    03:00 +17°C° 0.5 mm 2 mps 754 mmHg 96%
    04:00 +17°C° 0.4 mm 2 mps 754 mmHg 96%
    05:00 +17°C° 0.4 mm 2 mps 754 mmHg 95%
    06:00 +17°C° 0.4 mm 2 mps 753 mmHg 95%
    07:00 +18°C° 0.2 mm 2 mps 753 mmHg 94%
    08:00 +18°C° 0.2 mm 3 mps 753 mmHg 93%
    09:00 +18°C° 0.2 mm 3 mps 753 mmHg 92%
    10:00 +19°C° 0.1 mm 3 mps 753 mmHg 87%
    11:00 +20°C° 0.1 mm 3 mps 753 mmHg 81%
    12:00 +21°C° 0.1 mm 4 mps 753 mmHg 76%
    13:00 +21°C° 0.1 mm 4 mps 753 mmHg 75%
    14:00 +21°C° 0.1 mm 4 mps 753 mmHg 74%
    15:00 +20°C° 0.1 mm 4 mps 754 mmHg 73%
    16:00 +20°C° 0 mm 4 mps 754 mmHg 74%
    17:00 +19°C° 0 mm 3 mps 754 mmHg 74%
    18:00 +19°C° 0 mm 3 mps 754 mmHg 74%
    19:00 +17°C° 0 mm 3 mps 754 mmHg 78%
    20:00 +16°C° 0 mm 2 mps 754 mmHg 83%
    21:00 +15°C° 0 mm 2 mps 754 mmHg 87%
    22:00 +14°C° 0 mm 2 mps 754 mmHg 89%
    23:00 +13°C° 0 mm 2 mps 754 mmHg 92%

    Day after tomorrow, 24 July, Tuesday

    Time Temperature Precipitation Wind Pressure Humidity
    00:00 +13°C° 0 mm 1 mps 754 mmHg 94%
    01:00 +12°C° 0 mm 2 mps 754 mmHg 94%
    02:00 +12°C° 0 mm 2 mps 754 mmHg 95%
    03:00 +12°C° 0 mm 2 mps 754 mmHg 95%
    04:00 +12°C° 0 mm 2 mps 754 mmHg 92%
    05:00 +13°C° 0 mm 2 mps 754 mmHg 89%
    06:00 +13°C° 0 mm 2 mps 754 mmHg 87%
    07:00 +13°C° 0 mm 3 mps 754 mmHg 80%
    08:00 +14°C° 0 mm 3 mps 754 mmHg 73%
    09:00 +15°C° 0 mm 4 mps 755 mmHg 67%
    10:00 +17°C° 0 mm 4 mps 755 mmHg 63%
    11:00 +18°C° 0 mm 4 mps 755 mmHg 60%
    12:00 +18°C° 0 mm 4 mps 755 mmHg 56%
    13:00 +19°C° 0 mm 4 mps 755 mmHg 55%
    14:00 +19°C° 0 mm 4 mps 755 mmHg 54%
    15:00 +19°C° 0 mm 4 mps 755 mmHg 53%
    16:00 +18°C° 0.1 mm 4 mps 755 mmHg 57%
    17:00 +18°C° 0.1 mm 4 mps 756 mmHg 60%
    18:00 +17°C° 0.1 mm 4 mps 756 mmHg 63%
    19:00 +16°C° 0 mm 3 mps 756 mmHg 70%
    20:00 +13°C° 0 mm 3 mps 756 mmHg 77%
    21:00 +13°C° 0 mm 2 mps 757 mmHg 84%
    22:00 +12°C° 0 mm 2 mps 757 mmHg 85%
    23:00 +10°C° 0 mm 2 mps 757 mmHg 87%

    25 July, Wednesday

    Time Temperature Precipitation Wind Pressure Humidity
    00:00 +10°C° 0 mm 2 mps 757 mmHg 89%
    01:00 +10°C° 0 mm 2 mps 757 mmHg 88%
    02:00 +10°C° 0 mm 2 mps 757 mmHg 88%
    03:00 +10°C° 0 mm 2 mps 757 mmHg 87%
    04:00 +12°C° 0 mm 2 mps 757 mmHg 84%
    05:00 +12°C° 0 mm 2 mps 757 mmHg 80%
    06:00 +13°C° 0 mm 2 mps 757 mmHg 76%
    07:00 +15°C° 0 mm 2 mps 758 mmHg 71%
    08:00 +16°C° 0 mm 3 mps 758 mmHg 65%
    09:00 +18°C° 0 mm 3 mps 758 mmHg 59%
    10:00 +19°C° 0 mm 3 mps 758 mmHg 57%
    11:00 +20°C° 0 mm 3 mps 758 mmHg 54%
    12:00 +21°C° 0 mm 3 mps 757 mmHg 52%
    13:00 +21°C° 0 mm 3 mps 757 mmHg 53%
    14:00 +21°C° 0 mm 3 mps 757 mmHg 53%
    15:00 +21°C° 0 mm 4 mps 757 mmHg 54%
    16:00 +21°C° 0 mm 4 mps 756 mmHg 57%
    17:00 +21°C° 0 mm 4 mps 756 mmHg 59%
    18:00 +20°C° 0 mm 5 mps 755 mmHg 62%
    19:00 +19°C° 0 mm 4 mps 755 mmHg 69%
    20:00 +18°C° 0 mm 4 mps 755 mmHg 76%
    21:00 +17°C° 0 mm 4 mps 755 mmHg 83%
    22:00 +15°C° 0 mm 4 mps 755 mmHg 86%
    23:00 +15°C° 0 mm 4 mps 754 mmHg 88%

    26 July, Thursday

    Time Temperature Precipitation Wind Pressure Humidity
    00:00 +14°C° 0 mm 3 mps 754 mmHg 91%
    01:00 +14°C° 0 mm 3 mps 754 mmHg 91%
    02:00 +13°C° 0 mm 3 mps 754 mmHg 91%
    03:00 +13°C° 0 mm 3 mps 754 mmHg 92%
    04:00 +14°C° 0 mm 3 mps 754 mmHg 89%
    05:00 +14°C° 0 mm 3 mps 755 mmHg 86%
    06:00 +16°C° 0 mm 3 mps 755 mmHg 83%
    07:00 +17°C° 0 mm 3 mps 755 mmHg 79%
    08:00 +19°C° 0 mm 3 mps 756 mmHg 74%
    09:00 +20°C° 0 mm 3 mps 756 mmHg 70%
    10:00 +21°C° 0 mm 3 mps 757 mmHg 68%
    11:00 +21°C° 0 mm 3 mps 757 mmHg 66%
    12:00 +23°C° 0 mm 2 mps 758 mmHg 64%
    13:00 +23°C° 0.1 mm 2 mps 758 mmHg 63%
    14:00 +23°C° 0.1 mm 2 mps 758 mmHg 63%
    15:00 +23°C° 0.1 mm 2 mps 758 mmHg 62%
    16:00 +23°C° 0.1 mm 2 mps 758 mmHg 65%
    17:00 +21°C° 0.1 mm 2 mps 758 mmHg 68%
    18:00 +21°C° 0.1 mm 2 mps 758 mmHg 71%
    19:00 +19°C° 0 mm 2 mps 758 mmHg 78%
    20:00 +18°C° 0 mm 2 mps 758 mmHg 85%
    21:00 +16°C° 0 mm 2 mps 758 mmHg 92%
    22:00 +16°C° 0 mm 2 mps 758 mmHg 93%
    23:00 +15°C° 0 mm 1 mps 758 mmHg 95%

    27 July, Friday

    Time Temperature Precipitation Wind Pressure Humidity
    00:00 +15°C° 0 mm 1 mps 758 mmHg 96%
    01:00 +15°C° 0 mm 1 mps 758 mmHg 96%
    02:00 +15°C° 0 mm 2 mps 757 mmHg 96%
    03:00 +15°C° 0 mm 2 mps 757 mmHg 97%
    04:00 +15°C° 0 mm 2 mps 757 mmHg 95%
    05:00 +16°C° 0 mm 2 mps 757 mmHg 93%
    06:00 +17°C° 0 mm 2 mps 757 mmHg 91%
    07:00 +18°C° 0 mm 3 mps 757 mmHg 82%
    08:00 +20°C° 0 mm 4 mps 757 mmHg 73%
    09:00 +21°C° 0 mm 4 mps 757 mmHg 64%
    10:00 +22°C° 0 mm 4 mps 757 mmHg 60%
    11:00 +23°C° 0 mm 4 mps 757 mmHg 56%
    12:00 +25°C° 0 mm 5 mps 757 mmHg 52%
    13:00 +25°C° 0 mm 4 mps 757 mmHg 52%
    14:00 +25°C° 0 mm 4 mps 757 mmHg 53%
    15:00 +25°C° 0 mm 4 mps 757 mmHg 53%
    16:00 +25°C° 0.1 mm 3 mps 757 mmHg 56%
    17:00 +24°C° 0.1 mm 3 mps 757 mmHg 59%
    18:00 +24°C° 0.1 mm 2 mps 757 mmHg 62%
    19:00 +21°C° 0 mm 2 mps 757 mmHg 69%
    20:00 +20°C° 0 mm 2 mps 757 mmHg 77%
    21:00 +18°C° 0 mm 2 mps 757 mmHg 84%
    22:00 +17°C° 0 mm 2 mps 757 mmHg 86%
    23:00 +16°C° 0 mm 1 mps 757 mmHg 89%
    Show more